Temperature
19 18 19 19 19 19 19 18 19 19 19 19 19 19 19 19 19 19 19 19 19 19 19 19 19 19 19 19 19 19 19 19 19 19 19 19 19 19 19 19 19 18 19
19 18 19 19 19 19 19 18 19 19 19 19 19 19 19 19 19 19 18 18 18 19 19 19 19 19 19 19 19 19 19 19 19 19 19 19 19 19 19 19 19 19 19
19 18 19 19 19 19 19 19 19 19 18 19 19 19 19 19 19 18 18 18 18 19 19 19 19 19 18 18 18 19 18 18 19 18 18 18 18 19 18 19 19 19 19
19 18 18 19 19 19 19 19 18 18 18 19 19 18 18 18 18 18 18 18 18 19 19 18 18 18 18 18 18 18 18 18 18 18 18 18 18 18 18 18 19 18 18
19 18 18 19 19 19 19 19 18 18 18 18 19 19 19 18 18 18 18 18 18 18 19 18 18 18 18 18 18 18 18 18 18 18 18 18 18 18 18 18 19 18 18
19 18 18 19 19 19 19 19 19 18 18 18 19 19 18 18 18 18 18 18 18 18 18 18 18 17 17 18 18 18 18 18 18 18 18 18 18 18 18 18 18 18 18
19 18 18 19 19 19 19 19 19 18 18 18 18 18 18 18 18 17 17 17 18 18 18 17 17 17 17 17 17 18 18 18 17 17 17 18 18 18 18 18 18 18 18
19 18 18 19 19 19 18 18 18 18 18 18 18 18 18 18 18 17 17 18 18 18 18 17 17 17 17 17 17 18 18 18 17 17 17 17 18 18 18 18 18 18 18
19 18 18 18 18 18 18 18 18 18 18 18 18 18 18 18 17 17 17 18 18 18 18 18 17 17 17 17 17 18 18 18 17 17 17 17 18 18 18 18 18 18 18
19 19 18 18 18 18 18 18 18 18 18 18 18 18 18 18 17 17 17 18 18 18 18 17 17 17 17 17 18 18 18 17 16 16 17 17 18 18 18 18 18 18 18
19 19 19 19 18 18 18 18 18 18 18 18 18 18 18 17 17 16 17 18 18 17 17 17 17 17 17 17 17 17 17 16 16 16 17 17 17 18 18 18 18 18 18
20 19 19 19 18 18 18 18 18 17 17 17 17 17 17 16 16 16 17 17 17 17 16 16 17 17 17 17 17 17 16 16 16 16 16 17 17 17 17 18 18 18 18
21 20 19 19 19 18 18 18 18 18 17 17 17 17 17 17 16 16 16 16 16 16 16 16 16 16 17 16 17 16 16 16 16 16 16 17 17 17 17 17 17 17 18
21 20 19 19 19 18 18 18 17 17 17 17 17 17 17 17 17 16 16 16 16 16 16 16 16 16 16 17 17 17 16 16 16 16 17 17 17 17 17 17 17 17 17
21 20 20 19 19 19 18 18 17 17 17 17 17 17 17 17 17 16 16 16 16 16 16 16 17 16 16 16 16 16 16 16 16 16 16 17 17 17 17 17 17 17 17
22 21 20 20 19 19 18 18 18 17 17 17 17 17 17 17 17 16 16 16 16 16 16 17 17 16 16 16 16 15 16 16 16 15 16 16 16 16 17 17 17 17 17
22 21 20 20 20 19 19 18 18 17 17 17 17 17 17 17 17 16 16 16 16 16 16 16 16 16 16 15 15 15 15 15 15 15 16 16 16 16 16 16 16 17 17
22 21 21 20 20 19 19 19 18 18 17 17 17 17 16 16 16 16 16 16 16 16 16 16 16 16 16 16 15 15 15 15 15 15 16 16 16 16 16 16 16 16 17
22 21 20 20 19 19 19 19 18 18 17 17 17 17 16 16 16 16 16 16 16 16 16 16 16 16 16 15 15 15 15 15 15 15 15 16 16 16 16 16 16 16 16
21 21 20 19 19 18 18 18 18 18 18 17 17 17 16 16 16 16 16 16 16 16 16 16 16 16 15 15 15 15 15 15 15 14 15 15 15 16 16 16 16 16 17
21 20 20 20 19 18 18 18 18 18 18 17 17 17 17 16 16 16 16 16 16 16 15 15 16 16 15 15 15 15 14 15 15 14 15 15 15 15 15 16 16 16 16
21 21 20 20 19 18 17 18 18 18 18 17 17 17 17 16 16 16 16 15 16 16 15 15 15 16 15 15 16 15 15 15 14 14 14 14 15 15 15 15 15 15 15
21 21 20 19 18 17 17 17 17 17 17 17 17 17 17 17 17 16 16 16 16 16 15 15 15 16 15 15 16 16 17 17 15 14 14 14 15 15 15 15 15 15 15
20 20 19 18 17 17 17 17 17 17 17 17 17 17 16 16 16 16 16 16 15 15 15 15 15 16 16 15 16 16 17 17 17 16 14 15 14 14 15 15 15 15 15
20 19 19 18 17 17 17 17 17 17 17 17 17 16 16 16 16 16 16 16 15 15 15 15 15 16 15 16 15 15 16 16 17 17 16 15 14 14 14 14 14 14 14
20 20 19 18 18 18 17 17 17 17 17 16 16 16 16 16 16 16 16 15 15 15 16 15 15 15 15 16 16 16 16 16 16 17 17 16 16 15 14 14 14 14 14
Wind_Speed
9 13 15 12 12 11 11 11 11 11 12 12 11 11 11 11 12 12 12 11 9 9 9 10 10 8 7 5 4 5 5 6 7 7 7 7 8 6 5 4 2 5 6
12 13 15 13 12 11 11 12 12 12 13 12 12 11 11 12 13 13 12 11 9 8 8 10 11 9 7 5 5 4 5 6 5 5 4 5 5 5 4 3 2 6 6
12 13 15 12 12 11 12 13 13 13 13 13 11 11 10 11 12 12 11 10 9 9 9 10 10 8 8 7 6 6 6 6 5 3 3 3 5 5 4 4 6 6 6
12 12 13 13 12 11 12 12 13 13 13 12 11 10 9 10 10 11 11 11 11 10 9 10 8 7 9 9 9 9 8 7 5 1 2 1 2 7 6 7 8 7 6
11 11 11 12 11 10 10 11 12 12 13 13 12 10 10 9 10 10 10 11 12 10 9 8 7 7 8 9 9 9 9 9 5 2 4 3 3 5 6 7 7 7 6
10 10 12 11 11 10 10 11 12 13 14 14 13 11 10 9 10 10 11 11 11 10 8 7 6 5 6 8 9 9 9 6 4 7 6 6 6 7 6 6 5 5 5
10 9 11 11 11 11 10 11 13 14 14 14 13 11 10 10 11 11 11 11 10 10 9 6 5 4 6 8 9 9 8 5 5 6 7 9 9 9 8 7 6 5 5
9 9 10 11 10 10 10 12 14 14 13 13 12 12 11 11 12 12 12 11 9 9 9 8 9 10 10 8 8 8 8 7 4 5 5 8 11 10 9 7 7 7 6
8 8 8 10 11 10 10 12 14 14 13 13 13 12 11 12 12 12 13 11 10 10 10 10 11 11 10 9 8 8 7 7 3 4 4 7 9 10 10 9 8 8 7
8 8 8 9 9 11 12 13 14 14 14 14 14 13 12 13 14 13 13 12 11 10 10 11 11 11 11 10 8 6 3 3 4 3 4 7 7 8 8 8 7 7 6
8 8 8 9 10 10 12 14 14 14 14 14 14 14 13 13 13 12 13 13 13 12 11 12 11 10 8 9 7 3 1 3 4 5 7 8 5 6 6 6 6 6 5
11 10 8 8 10 10 10 12 12 13 14 12 11 12 10 10 9 12 15 13 13 12 11 11 9 6 2 5 7 3 4 5 4 6 9 8 4 4 4 4 4 4 4
11 10 9 8 9 9 8 8 8 9 11 11 11 11 9 10 10 11 11 12 12 10 10 10 7 5 6 6 5 6 6 6 6 7 10 9 7 6 6 6 5 5 4
10 10 10 9 9 9 8 7 6 7 8 8 10 11 9 7 8 9 8 9 9 6 5 5 5 6 7 7 7 8 8 8 8 9 12 13 11 9 8 7 7 8 8
10 10 10 10 9 9 8 6 7 7 7 8 9 10 9 7 8 9 8 7 7 6 6 5 6 6 7 7 8 9 10 10 11 11 13 20 19 14 11 10 10 10 10
11 11 11 11 10 10 9 9 7 7 7 8 9 10 10 8 8 8 9 8 8 6 5 6 7 6 6 6 7 8 9 10 11 11 11 15 21 21 18 15 14 12 11
10 11 12 12 12 12 11 10 7 7 8 8 9 11 11 10 10 9 9 10 9 8 7 7 8 6 6 6 6 7 8 9 9 11 11 9 11 17 21 20 19 16 14
10 11 11 11 12 13 11 11 8 8 8 8 9 9 11 11 11 9 9 9 9 8 7 7 7 7 6 5 5 5 6 7 8 8 10 10 10 9 14 18 19 20 19
11 11 12 12 12 12 11 10 8 7 7 7 9 9 11 12 13 11 9 10 11 8 7 8 8 7 7 5 5 4 5 7 7 7 10 10 10 10 9 11 14 17 18
10 10 9 10 9 9 9 8 7 6 6 7 9 10 12 12 13 11 9 11 12 9 8 8 9 7 7 6 5 4 4 5 6 7 7 8 9 11 10 9 8 11 16
6 8 8 9 9 8 7 7 7 7 8 9 9 12 14 14 14 11 8 11 11 11 11 11 9 9 8 8 6 6 5 4 5 4 5 6 8 8 9 9 8 8 8
5 6 8 9 10 9 7 7 6 6 6 8 8 10 13 14 14 11 10 8 11 11 13 13 11 9 8 9 7 7 5 5 3 4 4 4 5 6 7 8 8 8 8
5 6 7 9 10 10 9 7 6 5 5 6 8 9 11 13 13 11 9 8 11 13 12 14 15 14 11 11 9 6 5 4 5 5 4 4 4 3 4 5 6 7 7
6 7 7 8 9 10 10 9 10 7 7 8 7 8 10 13 14 12 10 9 12 13 14 14 16 14 13 12 10 7 5 3 5 5 5 5 4 4 3 3 3 4 5
7 7 7 8 9 9 10 9 9 8 6 5 6 7 9 10 12 13 14 12 14 14 15 14 15 15 13 13 11 10 7 5 6 4 6 6 6 6 4 3 3 2 3
7 6 6 7 8 8 9 9 9 8 7 6 7 6 6 6 8 13 15 14 14 13 13 12 12 15 13 14 13 11 9 8 8 6 5 7 7 6 6 5 4 3 3
Wind_Direction
157 159 151 161 154 153 156 151 144 141 136 126 126 131 134 139 139 129 117 104 93 94 95 89 85 90 99 103 112 113 107 106 104 100 102 121 130 125 108 116 150 112 96
152 158 152 161 157 152 154 154 151 147 139 132 131 129 132 134 135 128 117 103 93 85 83 81 79 81 89 101 115 116 108 101 102 94 104 136 139 131 114 120 58 81 101
152 156 159 163 159 154 155 159 158 154 148 144 140 133 132 133 136 136 128 116 107 96 79 72 74 82 91 95 105 102 96 83 77 73 244 179 140 144 141 131 113 101 100
151 157 159 160 162 158 158 160 160 158 156 151 144 137 136 132 130 128 124 114 102 95 85 74 74 90 92 90 91 90 87 83 75 302 241 94 124 123 137 126 118 109 105
146 154 146 159 163 162 161 160 158 157 155 148 141 142 142 137 132 126 123 114 105 99 95 88 87 99 90 87 85 83 82 82 83 37 51 57 65 93 123 118 110 105 105
145 151 145 165 164 165 163 159 155 154 153 146 143 146 142 139 133 129 123 113 107 104 101 99 96 98 95 89 83 77 70 63 99 70 56 56 66 67 88 101 102 109 101
144 149 148 163 165 166 162 157 155 154 151 144 143 139 135 136 130 126 121 113 110 112 114 113 105 107 108 87 75 67 57 22 66 73 64 60 60 63 72 84 92 103 99
141 149 148 153 161 164 158 153 153 152 147 140 137 130 129 131 128 125 120 114 115 118 119 107 95 101 100 85 69 62 42 352 78 71 64 69 59 59 67 76 84 86 85
142 150 151 152 157 159 152 152 152 148 143 138 134 131 128 128 126 122 118 120 123 124 117 107 103 101 93 82 73 65 50 4 17 61 64 62 56 54 59 65 69 72 75
154 160 156 152 153 153 151 153 153 148 144 139 134 133 128 128 128 128 128 126 127 121 111 112 107 97 85 75 67 59 36 280 51 73 59 67 55 53 56 59 63 74 84
167 170 164 158 153 151 150 151 154 149 146 144 140 139 148 150 142 145 119 129 124 113 110 113 103 97 99 96 79 73 265 68 73 54 54 50 51 63 59 55 59 70 85
176 175 173 165 159 160 155 156 160 156 156 160 152 153 159 144 144 125 127 133 121 114 116 115 116 142 195 101 118 181 81 84 68 60 56 36 41 74 73 60 59 63 77
174 171 174 171 169 164 164 164 164 158 162 163 162 161 160 148 146 141 145 144 138 146 128 138 161 88 74 70 76 82 70 71 66 58 52 43 48 61 72 66 65 62 67
179 176 172 176 173 176 171 170 174 166 169 168 171 169 167 163 161 153 157 156 155 145 134 135 109 90 79 81 81 85 82 75 72 68 58 59 58 61 68 72 68 62 60
186 184 179 182 181 177 176 176 188 183 174 173 174 178 176 174 177 162 163 157 157 153 153 143 133 97 85 74 70 73 77 77 83 83 69 63 62 62 68 74 74 70 69
195 192 184 187 185 182 180 188 192 186 178 184 186 187 183 181 185 175 166 161 165 173 164 156 133 119 104 90 81 74 71 74 77 80 80 72 62 56 59 65 69 70 72
206 202 193 192 189 189 189 187 191 194 187 189 195 193 189 185 188 187 174 175 172 171 167 160 139 126 117 117 102 83 74 67 71 72 67 61 69 63 52 52 56 61 64
213 212 202 197 197 193 190 186 188 197 196 194 194 199 196 192 191 187 180 183 181 173 167 164 163 150 143 144 127 101 91 77 71 72 69 68 60 64 63 51 48 52 58
219 217 210 206 202 197 191 188 185 198 199 204 199 199 203 203 194 186 190 185 186 186 178 177 181 168 159 155 137 120 96 82 80 74 70 67 69 63 65 66 60 49 48
225 222 213 204 191 186 186 190 181 198 216 215 205 201 207 209 204 194 195 196 193 190 188 191 188 183 169 173 156 135 114 105 91 75 74 71 69 68 64 55 61 61 51
208 207 196 190 176 170 177 187 188 199 211 219 215 207 205 207 203 202 211 208 199 198 198 198 191 191 182 178 163 152 144 124 102 105 84 83 79 72 76 69 58 52 63
179 183 185 185 179 178 183 192 200 199 211 217 219 212 207 204 199 197 209 225 210 210 211 209 195 192 191 193 189 175 165 156 156 136 128 102 97 90 75 71 70 62 53
166 172 181 185 182 182 180 183 186 187 198 203 214 211 207 200 191 183 194 222 234 220 218 220 208 195 195 202 206 203 200 177 154 169 163 160 127 115 101 75 73 70 61
160 167 175 180 184 185 184 191 197 208 215 215 211 207 208 202 195 186 194 215 237 236 226 222 216 204 199 198 209 229 236 157 175 162 191 191 179 170 147 132 100 86 76
146 156 166 171 176 181 195 206 220 231 231 224 216 212 209 205 203 201 205 211 227 234 231 223 214 207 202 201 201 205 203 187 228 186 170 183 194 199 185 173 159 121 94
150 154 163 170 172 180 195 207 219 222 217 214 211 208 208 211 215 215 213 215 219 222 222 219 214 210 211 208 206 205 203 203 215 209 194 180 186 183 187 185 192 167 151
Height
1514 1516 1516 1518 1520 1521 1523 1524 1525 1526 1527 1528 1528 1529 1530 1531 1531 1532 1533 1533 1533 1533 1533 1533 1533 1533 1533 1533 1534 1534 1534 1534 1535 1535 1535 1536 1536 1537 1537 1538 1537 1537 1536
1514 1515 1516 1518 1520 1522 1523 1524 1525 1527 1528 1529 1530 1530 1531 1532 1532 1533 1534 1534 1535 1535 1534 1534 1534 1533 1534 1534 1534 1535 1535 1535 1535 1536 1537 1537 1538 1538 1538 1538 1538 1538 1538
1514 1515 1516 1519 1521 1522 1523 1525 1526 1528 1529 1530 1531 1532 1532 1533 1534 1534 1535 1535 1535 1535 1535 1535 1535 1535 1535 1535 1535 1535 1535 1535 1536 1537 1538 1539 1539 1538 1538 1539 1539 1538 1539
1515 1517 1518 1519 1522 1523 1524 1525 1527 1528 1530 1531 1532 1533 1533 1534 1535 1536 1536 1536 1536 1536 1536 1537 1536 1536 1536 1536 1536 1536 1536 1536 1537 1537 1539 1539 1540 1539 1539 1539 1539 1539 1540
1516 1518 1519 1520 1522 1524 1525 1526 1528 1529 1531 1532 1533 1533 1534 1535 1536 1536 1537 1537 1536 1537 1537 1538 1538 1538 1538 1538 1537 1537 1537 1537 1537 1538 1539 1538 1539 1539 1539 1539 1540 1540 1541
1517 1518 1519 1521 1523 1524 1525 1527 1528 1529 1531 1532 1533 1534 1535 1536 1536 1537 1537 1537 1537 1538 1539 1539 1539 1540 1540 1539 1539 1538 1538 1538 1539 1538 1539 1539 1539 1539 1539 1540 1540 1541 1541
1518 1519 1520 1521 1523 1525 1526 1527 1528 1529 1531 1533 1533 1535 1536 1536 1537 1537 1538 1538 1538 1539 1539 1540 1540 1541 1541 1540 1539 1539 1538 1539 1540 1539 1539 1539 1539 1539 1540 1540 1541 1541 1541
1518 1519 1520 1521 1523 1525 1526 1527 1529 1530 1532 1533 1534 1535 1537 1537 1537 1538 1538 1539 1540 1540 1540 1540 1541 1541 1541 1541 1540 1540 1539 1539 1541 1541 1541 1540 1540 1540 1540 1540 1541 1541 1542
1518 1520 1521 1522 1523 1525 1526 1528 1529 1531 1532 1534 1535 1536 1537 1538 1539 1539 1539 1540 1540 1541 1541 1541 1542 1542 1542 1541 1541 1541 1540 1540 1542 1542 1542 1541 1540 1541 1541 1541 1542 1542 1543
1519 1520 1522 1523 1525 1526 1527 1528 1529 1531 1532 1534 1535 1537 1538 1539 1539 1540 1540 1541 1541 1542 1542 1543 1543 1543 1543 1542 1542 1541 1540 1541 1542 1543 1543 1542 1541 1541 1542 1542 1543 1543 1544
1518 1520 1522 1524 1525 1526 1527 1528 1529 1531 1532 1534 1535 1537 1538 1541 1541 1542 1542 1542 1542 1543 1544 1545 1545 1545 1544 1543 1542 1541 1541 1543 1543 1544 1542 1542 1542 1542 1543 1543 1544 1544 1544
1518 1520 1522 1524 1525 1527 1528 1528 1530 1531 1532 1534 1536 1537 1540 1542 1543 1543 1542 1543 1544 1545 1546 1547 1547 1547 1547 1547 1544 1543 1544 1543 1544 1544 1543 1542 1543 1543 1543 1544 1544 1544 1545
1518 1519 1521 1523 1525 1526 1527 1529 1530 1531 1532 1534 1536 1538 1540 1542 1542 1543 1544 1546 1546 1548 1549 1549 1550 1550 1550 1547 1547 1547 1545 1546 1545 1545 1543 1543 1544 1544 1544 1544 1545 1545 1544
1516 1518 1520 1522 1524 1526 1527 1528 1530 1531 1532 1534 1535 1538 1540 1542 1543 1544 1545 1547 1549 1550 1551 1552 1552 1552 1551 1551 1550 1549 1548 1547 1546 1545 1544 1544 1544 1545 1544 1545 1545 1545 1544
1515 1517 1519 1520 1523 1524 1526 1527 1529 1530 1532 1533 1534 1537 1539 1541 1543 1543 1545 1546 1548 1550 1552 1552 1554 1553 1553 1552 1551 1551 1550 1549 1548 1546 1545 1545 1545 1546 1546 1545 1545 1545 1545
1514 1516 1517 1519 1520 1522 1523 1525 1527 1529 1530 1531 1533 1535 1538 1540 1541 1542 1544 1545 1547 1550 1552 1553 1554 1554 1554 1554 1553 1552 1551 1551 1551 1550 1549 1548 1548 1547 1547 1547 1546 1547 1547
1512 1514 1515 1517 1518 1520 1522 1524 1526 1527 1529 1530 1531 1534 1536 1538 1540 1541 1543 1545 1547 1549 1552 1553 1554 1554 1555 1555 1555 1554 1553 1552 1552 1552 1551 1550 1550 1550 1549 1549 1549 1549 1548
1509 1511 1513 1513 1515 1518 1519 1521 1524 1526 1527 1528 1530 1532 1534 1536 1539 1540 1542 1544 1546 1549 1551 1552 1553 1554 1555 1556 1556 1556 1554 1552 1553 1553 1553 1552 1551 1552 1552 1551 1551 1550 1550
1505 1507 1509 1510 1512 1514 1516 1518 1520 1523 1524 1526 1527 1529 1532 1535 1537 1538 1540 1542 1544 1547 1549 1551 1553 1554 1555 1556 1556 1556 1556 1554 1554 1555 1555 1554 1553 1553 1553 1553 1553 1552 1551
1501 1503 1505 1506 1507 1509 1512 1514 1516 1519 1520 1522 1524 1525 1528 1531 1534 1536 1538 1540 1543 1544 1546 1548 1551 1552 1553 1554 1556 1556 1556 1555 1555 1555 1555 1555 1555 1554 1554 1554 1554 1553 1552
1497 1499 1500 1502 1503 1504 1507 1509 1512 1514 1516 1518 1520 1521 1523 1526 1529 1532 1535 1538 1540 1542 1543 1545 1547 1551 1552 1554 1555 1556 1556 1556 1556 1556 1557 1557 1556 1555 1556 1555 1555 1554 1554
1494 1496 1497 1498 1499 1500 1503 1505 1508 1511 1513 1514 1515 1516 1518 1521 1524 1527 1530 1534 1536 1538 1540 1542 1544 1547 1550 1552 1554 1554 1555 1557 1555 1556 1556 1557 1557 1557 1557 1557 1556 1555 1555
1492 1494 1496 1496 1497 1498 1500 1502 1505 1507 1509 1511 1511 1512 1514 1516 1518 1521 1524 1528 1532 1534 1536 1539 1540 1543 1546 1550 1552 1553 1553 1553 1555 1556 1556 1557 1556 1557 1557 1557 1557 1557 1556
1491 1492 1494 1494 1496 1497 1499 1500 1502 1504 1506 1508 1508 1509 1511 1513 1514 1516 1518 1521 1525 1529 1532 1534 1536 1538 1542 1545 1548 1550 1552 1552 1553 1555 1556 1556 1556 1556 1557 1556 1556 1556 1556
1491 1492 1493 1493 1494 1496 1498 1499 1500 1501 1503 1504 1505 1505 1507 1508 1510 1511 1513 1515 1519 1523 1526 1529 1531 1534 1537 1541 1544 1546 1548 1550 1551 1552 1553 1555 1555 1555 1556 1555 1555 1555 1554
1489 1490 1492 1492 1493 1494 1495 1496 1497 1498 1499 1500 1501 1502 1503 1504 1505 1506 1508 1511 1513 1516 1520 1524 1526 1530 1533 1537 1541 1543 1545 1547 1549 1550 1551 1552 1553 1554 1554 1553 1554 1553 1553